When you browse on this site, cookies collect data to enhance your experience and personalize the content and advertising you see.
Visit our Privacy Policy to learn more. By continuing to use the site, you agree to this use of cookies and data.
  • en France
  • Liste des pays
  • À 7 jours
  • Température de l'eau
  • Carte satellitaire
  • Carte météo
  • Widgets météo
  • user-avatar
    Se connecter

    Météo par heure à Sumqayit

    Ce jour, 17 Février, Dimanche

    Heure Température Précipitation Vent Pression Humidité
    00:00 +4°C° 0 mm 2 m/s 739 mmHg 88%
    01:00 +4°C° 0.1 mm 2 m/s 739 mmHg 89%
    02:00 +4°C° 0.1 mm 2 m/s 739 mmHg 90%
    03:00 +4°C° 0.1 mm 2 m/s 739 mmHg 91%
    04:00 +3°C° 0.5 mm 3 m/s 739 mmHg 91%
    05:00 +3°C° 0.5 mm 4 m/s 739 mmHg 90%
    06:00 +2°C° 0.5 mm 5 m/s 739 mmHg 90%
    07:00 +2°C° 0.2 mm 5 m/s 740 mmHg 86%
    08:00 +2°C° 0.2 mm 5 m/s 740 mmHg 83%
    09:00 +2°C° 0.2 mm 5 m/s 741 mmHg 79%
    10:00 +3°C° 0.1 mm 4 m/s 741 mmHg 77%
    11:00 +3°C° 0.1 mm 4 m/s 741 mmHg 75%
    12:00 +4°C° 0.1 mm 3 m/s 741 mmHg 73%
    13:00 +4°C° 0 mm 3 m/s 741 mmHg 74%
    14:00 +4°C° 0 mm 3 m/s 740 mmHg 74%
    15:00 +5°C° 0 mm 2 m/s 740 mmHg 75%
    16:00 +3°C° 0 mm 3 m/s 740 mmHg 77%
    17:00 +3°C° 0 mm 3 m/s 740 mmHg 79%
    18:00 +3°C° 0 mm 3 m/s 740 mmHg 81%
    19:00 +3°C° 0 mm 4 m/s 740 mmHg 81%
    20:00 +3°C° 0 mm 4 m/s 740 mmHg 81%
    21:00 +2°C° 0 mm 5 m/s 740 mmHg 81%
    22:00 +2°C° 0 mm 5 m/s 740 mmHg 82%
    23:00 +2°C° 0 mm 6 m/s 739 mmHg 83%

    Demain, 18 Février, Lundi

    Heure Température Précipitation Vent Pression Humidité
    00:00 +2°C° 0 mm 7 m/s 739 mmHg 85%
    01:00 +2°C° 0 mm 7 m/s 738 mmHg 84%
    02:00 +2°C° 0 mm 7 m/s 738 mmHg 83%
    03:00 +2°C° 0 mm 7 m/s 737 mmHg 82%
    04:00 +2°C° 0 mm 7 m/s 737 mmHg 79%
    05:00 +1°C° 0 mm 8 m/s 736 mmHg 76%
    06:00 +1°C° 0 mm 8 m/s 736 mmHg 73%
    07:00 +2°C° 0 mm 9 m/s 736 mmHg 68%
    08:00 +3°C° 0 mm 10 m/s 736 mmHg 62%
    09:00 +4°C° 0 mm 11 m/s 736 mmHg 57%
    10:00 +6°C° 0 mm 11 m/s 736 mmHg 52%
    11:00 +7°C° 0 mm 11 m/s 735 mmHg 47%
    12:00 +9°C° 0 mm 11 m/s 735 mmHg 41%
    13:00 +10°C° 0 mm 9 m/s 735 mmHg 42%
    14:00 +10°C° 0 mm 7 m/s 734 mmHg 42%
    15:00 +10°C° 0 mm 5 m/s 734 mmHg 43%
    16:00 +9°C° 0 mm 5 m/s 734 mmHg 50%
    17:00 +7°C° 0 mm 4 m/s 735 mmHg 57%
    18:00 +6°C° 0 mm 4 m/s 735 mmHg 65%
    19:00 +6°C° 0 mm 5 m/s 735 mmHg 70%
    20:00 +5°C° 0 mm 5 m/s 736 mmHg 76%
    21:00 +3°C° 0 mm 5 m/s 736 mmHg 82%
    22:00 +3°C° 0 mm 6 m/s 736 mmHg 82%
    23:00 +2°C° 0 mm 6 m/s 737 mmHg 82%

    Après-demain, 19 Février, Mardi

    Heure Température Précipitation Vent Pression Humidité
    00:00 +2°C° 0 mm 7 m/s 737 mmHg 83%
    01:00 +2°C° 0.2 mm 7 m/s 737 mmHg 81%
    02:00 0°C° 0.2 mm 8 m/s 737 mmHg 79%
    03:00 -1°C° 0.2 mm 8 m/s 737 mmHg 77%
    04:00 -1°C° 0.3 mm 8 m/s 738 mmHg 78%
    05:00 -1°C° 0.3 mm 9 m/s 738 mmHg 79%
    06:00 -3°C° 0.3 mm 9 m/s 738 mmHg 80%
    07:00 -3°C° 0.7 mm 10 m/s 739 mmHg 81%
    08:00 -3°C° 0.7 mm 10 m/s 740 mmHg 81%
    09:00 -3°C° 0.7 mm 11 m/s 740 mmHg 82%
    10:00 -3°C° 0.6 mm 11 m/s 741 mmHg 82%
    11:00 -4°C° 0.6 mm 10 m/s 741 mmHg 82%
    12:00 -4°C° 0.6 mm 10 m/s 742 mmHg 82%
    13:00 -4°C° 0.3 mm 10 m/s 742 mmHg 79%
    14:00 -3°C° 0.3 mm 10 m/s 743 mmHg 77%
    15:00 -3°C° 0.3 mm 11 m/s 743 mmHg 74%
    16:00 -4°C° 0 mm 10 m/s 744 mmHg 73%
    17:00 -4°C° 0 mm 9 m/s 745 mmHg 72%
    18:00 -4°C° 0 mm 9 m/s 745 mmHg 71%
    19:00 -4°C° 0 mm 8 m/s 746 mmHg 71%
    20:00 -3°C° 0 mm 7 m/s 747 mmHg 70%
    21:00 -3°C° 0 mm 7 m/s 747 mmHg 70%
    22:00 -3°C° 0 mm 6 m/s 748 mmHg 71%
    23:00 -2°C° 0 mm 5 m/s 748 mmHg 72%

    20 Février, Mercredi

    Heure Température Précipitation Vent Pression Humidité
    00:00 -2°C° 0 mm 4 m/s 748 mmHg 72%
    01:00 -2°C° 0 mm 4 m/s 748 mmHg 73%
    02:00 -1°C° 0 mm 3 m/s 749 mmHg 75%
    03:00 -1°C° 0 mm 3 m/s 749 mmHg 76%
    04:00 -1°C° 0 mm 2 m/s 749 mmHg 77%
    05:00 -1°C° 0 mm 2 m/s 749 mmHg 79%
    06:00 +1°C° 0 mm 1 m/s 749 mmHg 80%
    07:00 +1°C° 0 mm 1 m/s 750 mmHg 78%
    08:00 +2°C° 0 mm 1 m/s 750 mmHg 76%
    09:00 +2°C° 0 mm 1 m/s 750 mmHg 74%
    10:00 +2°C° 0 mm 2 m/s 750 mmHg 73%
    11:00 +1°C° 0 mm 4 m/s 750 mmHg 72%
    12:00 +2°C° 0 mm 5 m/s 750 mmHg 71%
    13:00 +2°C° 0 mm 5 m/s 749 mmHg 71%
    14:00 +2°C° 0 mm 6 m/s 749 mmHg 70%
    15:00 +3°C° 0 mm 6 m/s 748 mmHg 70%
    16:00 +2°C° 0 mm 6 m/s 748 mmHg 72%
    17:00 +2°C° 0 mm 6 m/s 748 mmHg 75%
    18:00 +2°C° 0 mm 5 m/s 748 mmHg 78%
    19:00 +2°C° 0 mm 6 m/s 748 mmHg 79%
    20:00 +2°C° 0 mm 6 m/s 748 mmHg 80%
    21:00 +2°C° 0 mm 6 m/s 747 mmHg 81%
    22:00 +2°C° 0 mm 6 m/s 747 mmHg 83%
    23:00 +2°C° 0 mm 6 m/s 746 mmHg 84%

    21 Février, Jeudi

    Heure Température Précipitation Vent Pression Humidité
    00:00 +2°C° 0 mm 7 m/s 746 mmHg 86%
    01:00 +2°C° 0 mm 7 m/s 745 mmHg 86%
    02:00 +2°C° 0 mm 7 m/s 745 mmHg 87%
    03:00 +2°C° 0 mm 7 m/s 744 mmHg 88%
    04:00 +2°C° 0 mm 7 m/s 744 mmHg 88%
    05:00 +2°C° 0 mm 7 m/s 744 mmHg 89%
    06:00 +2°C° 0 mm 7 m/s 744 mmHg 90%
    07:00 +2°C° 0 mm 7 m/s 744 mmHg 86%
    08:00 +2°C° 0 mm 7 m/s 744 mmHg 83%
    09:00 +3°C° 0 mm 7 m/s 744 mmHg 79%
    10:00 +3°C° 0 mm 7 m/s 744 mmHg 73%
    11:00 +4°C° 0 mm 6 m/s 744 mmHg 66%
    12:00 +5°C° 0 mm 6 m/s 743 mmHg 60%
    13:00 +7°C° 0 mm 6 m/s 743 mmHg 56%
    14:00 +7°C° 0 mm 5 m/s 743 mmHg 53%
    15:00 +7°C° 0 mm 5 m/s 743 mmHg 49%
    16:00 +7°C° 0 mm 4 m/s 743 mmHg 53%
    17:00 +7°C° 0 mm 3 m/s 743 mmHg 57%
    18:00 +5°C° 0 mm 3 m/s 743 mmHg 62%
    19:00 +6°C° 0 mm 2 m/s 743 mmHg 64%
    20:00 +6°C° 0 mm 2 m/s 743 mmHg 66%
    21:00 +5°C° 0 mm 2 m/s 743 mmHg 69%
    22:00 +4°C° 0 mm 3 m/s 742 mmHg 68%
    23:00 +4°C° 0 mm 3 m/s 742 mmHg 67%

    22 Février, Vendredi

    Heure Température Précipitation Vent Pression Humidité
    00:00 +4°C° 0 mm 3 m/s 742 mmHg 66%
    01:00 +3°C° 0 mm 4 m/s 742 mmHg 67%
    02:00 +3°C° 0 mm 4 m/s 741 mmHg 67%
    03:00 +3°C° 0 mm 4 m/s 741 mmHg 68%
    04:00 +3°C° 0 mm 4 m/s 741 mmHg 67%
    05:00 +1°C° 0 mm 4 m/s 741 mmHg 66%
    06:00 +1°C° 0 mm 4 m/s 741 mmHg 66%
    07:00 +3°C° 0 mm 4 m/s 741 mmHg 61%
    08:00 +4°C° 0 mm 4 m/s 741 mmHg 56%
    09:00 +5°C° 0 mm 4 m/s 742 mmHg 51%
    10:00 +7°C° 0 mm 3 m/s 742 mmHg 47%
    11:00 +8°C° 0 mm 3 m/s 742 mmHg 44%
    12:00 +9°C° 0 mm 3 m/s 742 mmHg 41%
    13:00 +8°C° 0 mm 4 m/s 742 mmHg 43%
    14:00 +8°C° 0 mm 5 m/s 742 mmHg 45%
    15:00 +8°C° 0 mm 7 m/s 742 mmHg 48%
    16:00 +6°C° 0 mm 7 m/s 742 mmHg 54%
    17:00 +4°C° 0 mm 8 m/s 743 mmHg 61%
    18:00 +2°C° 0 mm 9 m/s 743 mmHg 68%
    19:00 +2°C° 0 mm 8 m/s 744 mmHg 68%
    20:00 +2°C° 0 mm 8 m/s 744 mmHg 68%
    21:00 +2°C° 0 mm 7 m/s 745 mmHg 68%
    22:00 +2°C° 0 mm 6 m/s 745 mmHg 69%
    23:00 +2°C° 0 mm 5 m/s 745 mmHg 70%
    Voir plus